Wind_Speed
12 12 12 12 14 13 14 16 20 21 23 24 26 26 24 25 28 28 29 29 30 33 33 33 34 34 32 32 33 33 34 34
8 10 12 11 10 10 13 14 17 18 21 24 26 23 22 25 26 29 31 33 33 38 35 33 36 38 37 38 37 37 38 36
1 5 8 5 8 6 9 12 15 18 22 25 26 26 25 25 26 30 31 37 39 42 40 39 37 38 40 40 42 44 43 40
3 6 9 12 14 14 13 13 17 22 25 27 29 31 32 33 34 37 39 42 40 41 41 41 42 44 45 44 44 46 49 47
8 11 14 15 15 14 14 18 21 25 29 33 35 36 37 37 41 46 46 42 42 44 46 44 45 46 47 48 48 47 48 51
13 14 16 15 18 20 21 23 26 29 33 36 38 39 41 42 45 46 44 46 48 49 46 45 46 47 49 51 51 52 50 50
17 18 18 21 23 25 26 28 31 33 36 39 44 47 46 46 47 46 46 46 43 44 47 48 49 50 50 52 54 56 56 53
14 17 20 24 28 29 32 34 34 40 45 48 46 46 46 44 44 43 44 45 48 50 51 51 50 51 52 51 49 49 50 49
18 18 20 23 25 29 32 37 40 42 44 46 43 41 40 40 40 42 46 50 52 55 56 55 55 53 50 44 40 38 38 35
23 22 22 23 27 31 34 41 43 46 43 40 40 41 41 42 45 51 54 52 54 56 57 56 53 46 39 34 30 25 31 36
24 22 25 29 35 42 46 48 48 45 43 43 44 43 44 48 52 52 54 56 57 57 51 44 37 31 32 32 30 33 34 36
29 32 36 41 46 49 50 50 47 42 40 41 42 47 50 52 53 55 56 55 50 41 32 28 29 32 33 30 31 32 33 33
36 38 40 42 44 45 44 42 39 38 38 44 46 48 52 55 58 58 53 44 35 30 27 32 33 32 33 32 32 33 33 33
38 38 40 39 38 42 41 36 35 40 43 46 49 53 56 59 57 49 36 31 27 26 31 33 34 34 33 34 33 32 32 32
41 43 44 44 43 38 36 37 39 42 45 50 53 56 56 52 40 33 30 29 28 27 29 32 34 35 35 30 29 30 32 33
46 46 47 45 37 35 35 39 42 46 50 53 54 53 46 36 33 32 31 31 31 33 32 32 31 29 29 30 31 33 35 37
47 45 45 37 36 37 41 43 45 48 51 51 48 37 30 30 23 32 31 31 34 34 32 31 31 31 32 33 35 37 37 38
48 43 35 35 37 40 43 44 46 48 48 44 37 32 31 28 33 34 33 34 34 33 33 32 31 32 34 35 36 37 38 36
38 40 33 33 37 39 42 44 46 45 42 37 33 33 32 32 33 34 35 34 33 33 32 32 33 34 36 36 36 36 36 35
Wind_Direction
232 248 265 285 289 295 301 298 294 296 305 308 315 315 309 309 309 309 314 311 318 318 313 307 304 301 298 294 291 289 287 286
237 262 272 271 277 282 292 304 295 296 303 306 305 308 303 306 310 309 301 311 303 311 307 301 296 295 295 293 289 288 287 285
3 276 261 270 306 298 292 278 287 297 302 307 309 312 310 305 295 306 313 312 309 309 308 303 296 290 286 285 285 283 280 280
249 266 282 297 303 307 305 295 292 300 307 306 305 302 305 306 306 309 309 307 305 304 303 300 297 293 291 289 284 280 279 275
276 293 303 308 313 310 294 282 287 294 301 302 299 300 300 302 301 307 310 306 304 304 300 296 294 293 291 290 287 281 274 272
306 307 309 303 301 295 288 289 288 290 291 289 288 288 290 295 300 305 303 302 301 300 298 296 292 289 288 287 285 283 277 271
310 300 295 295 287 284 283 281 281 283 286 285 280 278 291 296 302 303 300 301 302 302 298 295 294 291 286 282 279 277 276 273
303 291 285 288 287 285 282 278 279 287 284 283 296 303 305 305 300 303 305 306 306 302 301 300 296 293 289 285 281 278 275 272
322 309 293 290 286 284 280 281 291 298 304 305 305 303 302 302 303 306 309 306 303 301 300 299 297 294 291 287 283 280 279 282
319 307 292 281 280 284 293 299 307 310 311 309 308 309 308 309 309 307 303 302 301 299 296 294 293 291 290 291 286 286 280 280
314 306 298 298 302 308 313 316 317 316 314 312 310 310 310 309 308 305 303 303 301 298 297 296 298 295 294 294 286 278 277 281
323 318 314 313 314 314 312 311 309 309 310 310 312 312 310 308 307 306 304 304 304 305 308 309 310 307 287 291 289 289 290 291
324 318 311 310 307 305 306 310 314 312 316 315 311 307 307 309 308 308 312 312 311 315 315 305 287 280 303 299 294 291 288 290
325 320 315 315 314 316 320 321 317 323 317 311 309 308 311 312 314 316 317 315 311 309 299 289 291 296 295 291 289 290 293 293
325 326 325 326 329 329 329 325 321 316 313 310 311 310 313 316 317 317 322 319 315 311 299 292 289 291 297 305 303 298 296 296
327 327 324 326 326 324 324 323 320 315 312 311 310 314 317 316 318 315 316 315 310 307 307 309 311 310 306 303 302 301 302 301
322 322 324 323 320 322 326 321 316 313 312 313 315 317 320 318 305 313 312 311 309 309 311 312 311 310 307 306 304 303 302 303
317 314 320 320 326 328 322 318 316 315 316 318 318 320 321 313 303 308 316 317 314 313 313 312 311 310 307 305 303 302 304 305
315 320 325 328 325 320 320 320 320 321 323 323 322 319 318 317 315 314 315 315 315 315 313 312 313 311 308 306 303 304 307 307
Height
3164 3165 3166 3166 3165 3164 3163 3162 3160 3158 3156 3153 3151 3149 3146 3143 3139 3136 3132 3129 3126 3123 3120 3116 3113 3110 3109 3106 3104 3101 3100 3099
3163 3163 3163 3162 3162 3161 3161 3159 3157 3154 3151 3148 3146 3144 3141 3138 3135 3132 3128 3124 3120 3116 3112 3109 3105 3102 3100 3097 3094 3092 3090 3089
3161 3161 3161 3160 3159 3158 3156 3153 3151 3149 3146 3143 3140 3137 3135 3133 3130 3126 3122 3117 3113 3108 3104 3100 3097 3093 3091 3089 3086 3082 3080 3080
3158 3157 3156 3155 3154 3152 3150 3149 3146 3143 3140 3137 3133 3129 3126 3123 3120 3117 3114 3108 3103 3099 3095 3090 3086 3083 3079 3077 3075 3072 3069 3068
3155 3154 3153 3151 3149 3147 3145 3143 3140 3137 3134 3130 3127 3122 3118 3115 3110 3106 3101 3098 3093 3088 3083 3079 3074 3070 3066 3064 3061 3058 3057 3054
3152 3150 3148 3146 3144 3142 3140 3138 3135 3132 3128 3124 3119 3114 3109 3105 3101 3096 3092 3088 3083 3078 3073 3068 3063 3059 3054 3050 3047 3044 3041 3040
3149 3147 3144 3142 3140 3138 3135 3132 3128 3124 3120 3115 3108 3104 3102 3096 3092 3086 3081 3076 3070 3065 3060 3056 3050 3045 3040 3035 3032 3028 3026 3024
3145 3142 3139 3137 3135 3132 3129 3126 3121 3117 3113 3107 3102 3097 3090 3084 3080 3074 3067 3062 3057 3052 3046 3040 3034 3029 3024 3018 3014 3011 3009 3007
3139 3136 3134 3131 3128 3125 3121 3118 3115 3109 3103 3097 3091 3085 3080 3075 3070 3064 3058 3051 3044 3038 3031 3025 3019 3013 3007 3003 2999 2997 2994 2993
3134 3130 3127 3124 3121 3117 3114 3109 3103 3097 3090 3085 3080 3075 3070 3064 3059 3053 3047 3040 3031 3024 3017 3010 3004 2998 2995 2991 2988 2987 2986 2984
3127 3124 3121 3117 3112 3107 3101 3095 3089 3084 3079 3074 3069 3064 3058 3053 3046 3039 3032 3024 3016 3009 3002 2997 2992 2988 2986 2983 2980 2977 2975 2973
3119 3116 3112 3107 3101 3097 3091 3086 3081 3075 3071 3066 3061 3056 3048 3040 3032 3024 3016 3008 3000 2995 2991 2988 2984 2981 2978 2974 2971 2969 2966 2963
3115 3111 3106 3102 3096 3090 3083 3078 3072 3068 3064 3058 3051 3042 3034 3026 3017 3008 3001 2995 2989 2986 2983 2980 2977 2973 2969 2966 2964 2961 2958 2955
3108 3103 3097 3092 3087 3080 3073 3068 3063 3058 3052 3044 3036 3028 3020 3011 3003 2997 2990 2985 2982 2979 2976 2973 2969 2965 2963 2959 2956 2953 2950 2947
3097 3092 3086 3079 3074 3069 3064 3060 3054 3047 3040 3032 3023 3015 3006 3000 2994 2989 2984 2979 2975 2971 2968 2965 2962 2958 2954 2950 2947 2944 2940 2938
3088 3082 3077 3071 3066 3062 3057 3051 3044 3036 3028 3020 3011 3004 2998 2992 2985 2981 2977 2972 2969 2965 2960 2956 2953 2949 2945 2942 2938 2934 2930 2927
3078 3074 3069 3064 3059 3054 3048 3041 3034 3026 3018 3010 3002 2995 2989 2985 2979 2975 2971 2967 2962 2957 2952 2948 2944 2940 2936 2932 2928 2924 2920 2916
3073 3068 3062 3056 3051 3046 3039 3031 3023 3014 3007 3000 2995 2989 2984 2980 2975 2969 2964 2959 2954 2949 2944 2940 2936 2932 2928 2923 2919 2914 2910 2906
3066 3060 3056 3051 3044 3036 3029 3021 3014 3006 2999 2992 2987 2982 2978 2973 2967 2962 2956 2951 2947 2942 2937 2933 2928 2924 2918 2914 2909 2905 2900 2895